Regional Weather Roundup
Issued by NWS

Home | Current Version | Previous Version | Graphics & Text | Print | Product List | Glossary On
Versions: 1 2 3 4 5 6 7 8 9 10 11 12 13 14 15 16 17 18 19 20 21 22 23 24 25 26 27 28 29 30 31 32 33 34 35 36 37 38 39 40 41 42 43 44 45 46 47 48 49 50
634
ASUS44 KJAN 280110
RWRMS

MISSISSIPPI HOURLY WEATHER ROUNDUP
NATIONAL WEATHER SERVICE JACKSON MS
700 PM CST FRI FEB 27 2015

NOTE: "FAIR: INDICATES FEW OR NO CLOUDS BELOW 12,000 FEET WITH NO
SIGNIFICANT WEATHER AND/OR OBSTRUCTIONS TO VISIBILITY.

MSZ001>002-007>008-010>013-018>021-025>028-034>036-280200-
NORTHWEST MISSISSIPPI

CITY           SKY/WX    TMP DP  RH WIND       PRES   REMARKS
CLARKSDALE     CLOUDY    28  23  80 N16G24    30.54F WCI  17
CLEVELAND      CLOUDY    30  25  79 N17G25    30.52R WCI  18
GREENWOOD        N/A    N/A N/A N/A MISG      30.49S
GREENVILLE     CLOUDY    31  22  69 N16       30.51R WCI  20
OLIVE BRANCH   CLOUDY    28  18  64 NE8       30.55S WCI  20
OXFORD         FAIR      32  16  51 N13G18    30.53R WCI  22
TUNICA         PTCLDY    28  23  80 N17       30.56S WCI  16
$$

MSZ003>006-009-014>017-022>024-029>033-037>039-280200-
NORTHEAST MISSISSIPPI

CITY           SKY/WX    TMP DP  RH WIND       PRES   REMARKS
COLUMBUS AFB   CLOUDY    36  20  51 N9        30.49R WCI  29
CORINTH        MOCLDY    34   9  35 N7        30.52R WCI  28
GOLDN TRIANGLE CLEAR     34  21  60 N8        30.46R WCI  27
STARKVILLE     FAIR      36  21  55 CALM      30.48R
TUPELO         PTCLDY    34  19  54 NE9       30.51R WCI  27
$$

MSZ040-058-280200-
CENTRAL MISSISSIPPI

CITY           SKY/WX    TMP DP  RH WIND       PRES   REMARKS
JACKSON INTL   CLEAR     38  28  67 NW9       30.41R WCI  31
JACKSON HAWKNS CLEAR     37  26  64 N6        30.42R WCI  32
MERIDIAN KEY   CLEAR     39  23  52 N8        30.43R WCI  33
MERIDIAN NAS   CLEAR     38  22  52 N6        30.44R WCI  33
VICKSBURG      CLOUDY    35  27  72 N21G26    30.47R WCI  24
$$

MSZ059>079-280200-
SOUTH MISSISSIPPI

CITY           SKY/WX    TMP DP  RH WIND       PRES   REMARKS
BROOKHAVEN     FAIR      39  32  75 N3        30.40R
HATTIESBURG    CLEAR     41  33  73 N3        30.39R
MCCOMB         PTCLDY    44  28  53 NE7       30.36S
NATCHEZ        PTCLDY    34  25  69 N15       30.41S WCI  24
PINE BELT      CLEAR     39  27  60 MISG      30.39R
$$

MSZ080>082-280200-
COASTAL MISSISSIPPI

CITY           SKY/WX    TMP DP  RH WIND       PRES   REMARKS
BAY ST LOUIS   CLEAR     45  30  57 N8        30.35R
BILOXI         CLEAR     49  33  54 NE9       30.33R
PASCAGOULA     CLEAR     44  33  65 N7        30.34R
GULFPORT       CLEAR     48  32  53 N9        30.34R
$$



USA.gov is the U.S. government's official web portal to all federal, state and local government web resources and services.